GOES 8 [-]

Last updated on June 19, 2021, 11:20 a.m. UTC

1 23051U 94022A   21169.34775623 -.00000211  00000-0  00000-0 0  9999
2 23051  12.8647  26.8217 0008030  16.7980 342.9096  0.98907643106072
UTC
Height (km)
Latitude
Longitude
Inclination
Orbital Period
UTC large
Height (km)
Speed (km/s)
/
Latitude / Longitude
Inclination (degrees)
Orbital Period (minutes)
Azimuth
Elevation
Range (km)
Doppler Factor
iOS Compass Heading
iOS Angle

Next 30 passes for location: Hong Kong

Rise time Rise Azimuth (degrees) Set time Set Azimuth (degrees) Duration Max altitude (degrees)

No matching passes for this satellites